Time,TemperatureF,DewpointF,PressureIn,WindDirection,WindDirectionDegrees,WindSpeedMPH,WindSpeedGustMPH,Humidity,HourlyPrecipIn,Conditions,Clouds,dailyrainin,SoftwareType,DateUTC
2013-03-27 00:00:00,36.0,25.7,30.14,WNW,292,8.0,11.0,66,0.00,,,0.00,Weather View 32 v70,2013-03-27 04:00:00,
2013-03-27 00:05:00,36.0,25.7,30.14,WNW,292,7.0,12.0,66,0.00,,,0.00,Weather View 32 v70,2013-03-27 04:05:00,
2013-03-27 00:10:00,36.0,25.4,30.14,West,270,8.0,12.0,65,0.00,,,0.00,Weather View 32 v70,2013-03-27 04:10:00,
2013-03-27 00:15:00,36.0,25.4,30.14,WNW,292,8.0,14.0,65,0.00,,,0.00,Weather View 32 v70,2013-03-27 04:15:00,
2013-03-27 00:20:00,36.0,25.4,30.14,WNW,292,7.0,14.0,65,0.00,,,0.00,Weather View 32 v70,2013-03-27 04:20:00,
2013-03-27 00:25:00,36.0,25.4,30.14,West,270,7.0,14.0,65,0.00,,,0.00,Weather View 32 v70,2013-03-27 04:25:00,
2013-03-27 00:30:00,36.0,25.4,30.15,WSW,247,7.0,14.0,65,0.00,,,0.00,Weather View 32 v70,2013-03-27 04:30:00,
2013-03-27 00:35:00,36.0,25.4,30.15,NNW,337,6.0,14.0,65,0.00,,,0.00,Weather View 32 v70,2013-03-27 04:35:00,
2013-03-27 00:40:00,36.0,25.4,30.15,WNW,292,7.0,14.0,65,0.00,,,0.00,Weather View 32 v70,2013-03-27 04:40:00,
2013-03-27 00:45:00,36.0,25.4,30.15,West,270,6.0,14.0,65,0.00,,,0.00,Weather View 32 v70,2013-03-27 04:45:00,
2013-03-27 00:50:00,36.0,25.4,30.15,West,270,9.0,14.0,65,0.00,,,0.00,Weather View 32 v70,2013-03-27 04:50:00,
2013-03-27 00:55:00,36.0,25.4,30.15,NW,315,9.0,16.0,65,0.00,,,0.00,Weather View 32 v70,2013-03-27 04:55:00,
2013-03-27 01:00:00,36.0,25.4,30.15,West,270,11.0,16.0,65,0.00,,,0.00,Weather View 32 v70,2013-03-27 05:00:00,
2013-03-27 01:05:00,36.0,25.4,30.15,WNW,292,6.0,16.0,65,0.00,,,0.00,Weather View 32 v70,2013-03-27 05:05:00,
2013-03-27 01:10:00,36.0,25.4,30.14,WNW,292,13.0,16.0,65,0.00,,,0.00,Weather View 32 v70,2013-03-27 05:10:00,
2013-03-27 01:15:00,36.0,25.4,30.14,West,270,9.0,16.0,65,0.00,,,0.00,Weather View 32 v70,2013-03-27 05:15:00,
2013-03-27 01:20:00,36.0,25.4,30.15,WNW,292,9.0,16.0,65,0.00,,,0.00,Weather View 32 v70,2013-03-27 05:20:00,
2013-03-27 01:25:00,36.0,25.4,30.15,West,270,8.0,16.0,65,0.00,,,0.00,Weather View 32 v70,2013-03-27 05:25:00,
2013-03-27 01:30:00,36.0,25.4,30.14,West,270,4.0,16.0,65,0.00,,,0.00,Weather View 32 v70,2013-03-27 05:30:00,
2013-03-27 01:35:00,36.0,25.4,30.14,WSW,247,12.0,16.0,65,0.00,,,0.00,Weather View 32 v70,2013-03-27 05:35:00,
2013-03-27 01:40:00,36.0,25.7,30.15,West,270,8.0,16.0,66,0.00,,,0.00,Weather View 32 v70,2013-03-27 05:40:00,
2013-03-27 01:45:00,36.0,25.7,30.15,WNW,292,6.0,16.0,66,0.00,,,0.00,Weather View 32 v70,2013-03-27 05:45:00,
2013-03-27 01:50:00,36.0,26.1,30.15,WNW,292,3.0,16.0,67,0.00,,,0.00,Weather View 32 v70,2013-03-27 05:50:00,
2013-03-27 01:55:00,35.0,25.1,30.15,WNW,292,4.0,16.0,67,0.00,,,0.00,Weather View 32 v70,2013-03-27 05:55:00,
2013-03-27 02:00:00,35.0,25.1,30.15,West,270,7.0,16.0,67,0.00,,,0.00,Weather View 32 v70,2013-03-27 06:00:00,
2013-03-27 02:05:00,35.0,25.9,30.15,West,270,6.0,16.0,69,0.00,,,0.00,Weather View 32 v70,2013-03-27 06:05:00,
2013-03-27 02:10:00,35.0,25.5,30.14,WNW,292,4.0,16.0,68,0.00,,,0.00,Weather View 32 v70,2013-03-27 06:10:00,
2013-03-27 02:15:00,36.0,26.5,30.14,WNW,292,4.0,16.0,68,0.00,,,0.00,Weather View 32 v70,2013-03-27 06:15:00,
2013-03-27 02:20:00,35.0,25.5,30.15,WNW,292,10.0,16.0,68,0.00,,,0.00,Weather View 32 v70,2013-03-27 06:20:00,
2013-03-27 02:25:00,36.0,26.5,30.15,WNW,292,6.0,13.0,68,0.00,,,0.00,Weather View 32 v70,2013-03-27 06:25:00,
2013-03-27 02:30:00,36.0,26.8,30.14,West,270,6.0,13.0,69,0.00,,,0.00,Weather View 32 v70,2013-03-27 06:30:00,
2013-03-27 02:35:00,35.0,25.9,30.14,WNW,292,5.0,13.0,69,0.00,,,0.00,Weather View 32 v70,2013-03-27 06:35:00,
2013-03-27 02:40:00,35.0,25.9,30.14,WNW,292,6.0,13.0,69,0.00,,,0.00,Weather View 32 v70,2013-03-27 06:40:00,
2013-03-27 02:45:00,35.0,25.9,30.14,WNW,292,10.0,13.0,69,0.00,,,0.00,Weather View 32 v70,2013-03-27 06:45:00,
2013-03-27 02:50:00,35.0,26.5,30.15,WNW,292,6.0,13.0,71,0.00,,,0.00,Weather View 32 v70,2013-03-27 06:50:00,
2013-03-27 02:55:00,35.0,26.5,30.15,WNW,292,5.0,13.0,71,0.00,,,0.00,Weather View 32 v70,2013-03-27 06:55:00,
2013-03-27 03:00:00,35.0,26.9,30.15,West,270,6.0,13.0,72,0.00,,,0.00,Weather View 32 v70,2013-03-27 07:00:00,
2013-03-27 03:05:00,35.0,26.9,30.15,West,270,4.0,13.0,72,0.00,,,0.00,Weather View 32 v70,2013-03-27 07:05:00,
2013-03-27 03:10:00,35.0,26.5,30.14,West,270,9.0,13.0,71,0.00,,,0.00,Weather View 32 v70,2013-03-27 07:10:00,
2013-03-27 03:15:00,35.0,26.5,30.14,West,270,9.0,13.0,71,0.00,,,0.00,Weather View 32 v70,2013-03-27 07:15:00,
2013-03-27 03:20:00,35.0,26.9,30.14,West,270,2.0,13.0,72,0.00,,,0.00,Weather View 32 v70,2013-03-27 07:20:00,
2013-03-27 03:25:00,35.0,26.9,30.14,West,270,6.0,13.0,72,0.00,,,0.00,Weather View 32 v70,2013-03-27 07:25:00,
2013-03-27 03:30:00,35.0,26.9,30.14,WNW,292,6.0,13.0,72,0.00,,,0.00,Weather View 32 v70,2013-03-27 07:30:00,
2013-03-27 03:35:00,35.0,26.5,30.14,West,270,4.0,13.0,71,0.00,,,0.00,Weather View 32 v70,2013-03-27 07:35:00,
2013-03-27 03:40:00,35.0,26.9,30.13,WNW,292,6.0,13.0,72,0.00,,,0.00,Weather View 32 v70,2013-03-27 07:40:00,
2013-03-27 03:45:00,35.0,27.2,30.13,WNW,292,7.0,13.0,73,0.00,,,0.00,Weather View 32 v70,2013-03-27 07:45:00,
2013-03-27 03:50:00,35.0,27.5,30.14,WNW,292,5.0,13.0,74,0.00,,,0.00,Weather View 32 v70,2013-03-27 07:50:00,
2013-03-27 03:55:00,35.0,27.2,30.14,West,270,9.0,13.0,73,0.00,,,0.00,Weather View 32 v70,2013-03-27 07:55:00,
2013-03-27 04:00:00,35.0,27.5,30.14,WNW,292,3.0,13.0,74,0.00,,,0.00,Weather View 32 v70,2013-03-27 08:00:00,
2013-03-27 04:05:00,35.0,27.2,30.14,WNW,292,8.0,13.0,73,0.00,,,0.00,Weather View 32 v70,2013-03-27 08:05:00,
2013-03-27 04:10:00,35.0,27.2,30.14,West,270,6.0,13.0,73,0.00,,,0.00,Weather View 32 v70,2013-03-27 08:10:00,
2013-03-27 04:15:00,35.0,27.5,30.14,NW,315,4.0,13.0,74,0.00,,,0.00,Weather View 32 v70,2013-03-27 08:15:00,
2013-03-27 04:20:00,35.0,27.5,30.14,WNW,292,6.0,13.0,74,0.00,,,0.00,Weather View 32 v70,2013-03-27 08:20:00,
2013-03-27 04:25:00,35.0,27.2,30.14,West,270,9.0,13.0,73,0.00,,,0.00,Weather View 32 v70,2013-03-27 08:25:00,
2013-03-27 04:30:00,35.0,27.2,30.14,West,270,9.0,13.0,73,0.00,,,0.00,Weather View 32 v70,2013-03-27 08:30:00,
2013-03-27 04:35:00,34.0,26.6,30.14,NW,315,6.0,13.0,74,0.00,,,0.00,Weather View 32 v70,2013-03-27 08:35:00,
2013-03-27 04:40:00,34.0,26.6,30.14,West,270,6.0,13.0,74,0.00,,,0.00,Weather View 32 v70,2013-03-27 08:40:00,
2013-03-27 04:45:00,34.0,26.6,30.14,West,270,6.0,13.0,74,0.00,,,0.00,Weather View 32 v70,2013-03-27 08:45:00,
2013-03-27 04:50:00,34.0,26.9,30.15,West,270,6.0,13.0,75,0.00,,,0.00,Weather View 32 v70,2013-03-27 08:50:00,
2013-03-27 04:55:00,34.0,27.2,30.15,West,270,4.0,13.0,76,0.00,,,0.00,Weather View 32 v70,2013-03-27 08:55:00,
2013-03-27 05:00:00,34.0,26.9,30.15,West,270,7.0,13.0,75,0.00,,,0.00,Weather View 32 v70,2013-03-27 09:00:00,
2013-03-27 05:05:00,34.0,27.2,30.15,WSW,247,6.0,13.0,76,0.00,,,0.00,Weather View 32 v70,2013-03-27 09:05:00,
2013-03-27 05:10:00,34.0,27.5,30.16,West,270,6.0,13.0,77,0.00,,,0.00,Weather View 32 v70,2013-03-27 09:10:00,
2013-03-27 05:15:00,34.0,27.5,30.16,West,270,6.0,13.0,77,0.00,,,0.00,Weather View 32 v70,2013-03-27 09:15:00,
2013-03-27 05:20:00,34.0,27.5,30.16,West,270,3.0,13.0,77,0.00,,,0.00,Weather View 32 v70,2013-03-27 09:20:00,
2013-03-27 05:25:00,34.0,27.2,30.16,West,270,4.0,13.0,76,0.00,,,0.00,Weather View 32 v70,2013-03-27 09:25:00,
2013-03-27 05:30:00,34.0,27.5,30.16,West,270,2.0,13.0,77,0.00,,,0.00,Weather View 32 v70,2013-03-27 09:30:00,
2013-03-27 05:35:00,34.0,26.9,30.16,WNW,292,4.0,13.0,75,0.00,,,0.00,Weather View 32 v70,2013-03-27 09:35:00,
2013-03-27 05:40:00,34.0,27.5,30.16,WNW,292,6.0,13.0,77,0.00,,,0.00,Weather View 32 v70,2013-03-27 09:40:00,
2013-03-27 05:45:00,34.0,27.9,30.16,NW,315,6.0,13.0,78,0.00,,,0.00,Weather View 32 v70,2013-03-27 09:45:00,
2013-03-27 05:50:00,33.0,27.2,30.16,West,270,2.0,13.0,79,0.00,,,0.00,Weather View 32 v70,2013-03-27 09:50:00,
2013-03-27 05:55:00,33.0,27.5,30.16,WNW,292,2.0,13.0,80,0.00,,,0.00,Weather View 32 v70,2013-03-27 09:55:00,
2013-03-27 06:00:00,33.0,27.2,30.17,NW,315,3.0,13.0,79,0.00,,,0.00,Weather View 32 v70,2013-03-27 10:00:00,
2013-03-27 06:05:00,34.0,27.9,30.17,WNW,292,10.0,13.0,78,0.00,,,0.00,Weather View 32 v70,2013-03-27 10:05:00,
2013-03-27 06:10:00,34.0,28.2,30.17,WNW,292,5.0,13.0,79,0.00,,,0.00,Weather View 32 v70,2013-03-27 10:10:00,
2013-03-27 06:15:00,33.0,27.2,30.17,WNW,292,7.0,13.0,79,0.00,,,0.00,Weather View 32 v70,2013-03-27 10:15:00,
2013-03-27 06:20:00,33.0,27.8,30.17,WNW,292,1.0,13.0,81,0.00,,,0.00,Weather View 32 v70,2013-03-27 10:20:00,
2013-03-27 06:25:00,33.0,28.1,30.17,WNW,292,4.0,12.0,82,0.00,,,0.00,Weather View 32 v70,2013-03-27 10:25:00,
2013-03-27 06:30:00,33.0,28.4,30.18,WNW,292,2.0,12.0,83,0.00,,,0.00,Weather View 32 v70,2013-03-27 10:30:00,
2013-03-27 06:35:00,33.0,29.0,30.18,WNW,292,5.0,12.0,85,0.00,,,0.00,Weather View 32 v70,2013-03-27 10:35:00,
2013-03-27 06:41:00,33.0,29.0,30.18,West,270,6.0,12.0,85,0.00,,,0.00,Weather View 32 v70,2013-03-27 10:41:00,
2013-03-27 06:46:00,33.0,29.0,30.18,West,270,3.0,12.0,85,0.00,,,0.00,Weather View 32 v70,2013-03-27 10:46:00,
2013-03-27 06:51:00,33.0,29.0,30.19,West,270,6.0,12.0,85,0.00,,,0.00,Weather View 32 v70,2013-03-27 10:51:00,
2013-03-27 06:56:00,33.0,29.0,30.19,West,270,4.0,12.0,85,0.00,,,0.00,Weather View 32 v70,2013-03-27 10:56:00,
2013-03-27 07:01:00,33.0,28.1,30.19,West,270,9.0,12.0,82,0.00,,,0.00,Weather View 32 v70,2013-03-27 11:01:00,
2013-03-27 07:06:00,33.0,28.1,30.19,WSW,247,3.0,12.0,82,0.00,,,0.00,Weather View 32 v70,2013-03-27 11:06:00,
2013-03-27 07:11:00,33.0,28.1,30.19,WSW,247,3.0,10.0,82,0.00,,,0.00,Weather View 32 v70,2013-03-27 11:11:00,
2013-03-27 07:16:00,33.0,27.8,30.19,WSW,247,3.0,10.0,81,0.00,,,0.00,Weather View 32 v70,2013-03-27 11:16:00,
2013-03-27 07:21:00,33.0,26.3,30.19,WNW,292,6.0,11.0,76,0.00,,,0.00,Weather View 32 v70,2013-03-27 11:21:00,
2013-03-27 07:26:00,33.0,25.6,30.19,WNW,292,6.0,11.0,74,0.00,,,0.00,Weather View 32 v70,2013-03-27 11:26:00,
2013-03-27 07:31:00,33.0,25.3,30.20,WNW,292,10.0,11.0,73,0.00,,,0.00,Weather View 32 v70,2013-03-27 11:31:00,
2013-03-27 07:36:00,33.0,25.6,30.20,West,270,3.0,11.0,74,0.00,,,0.00,Weather View 32 v70,2013-03-27 11:36:00,
2013-03-27 07:41:00,33.0,24.6,30.20,WNW,292,7.0,11.0,71,0.00,,,0.00,Weather View 32 v70,2013-03-27 11:41:00,
2013-03-27 07:46:00,33.0,25.0,30.20,West,270,7.0,12.0,72,0.00,,,0.00,Weather View 32 v70,2013-03-27 11:46:00,
2013-03-27 07:51:00,34.0,25.2,30.20,West,270,5.0,12.0,70,0.00,,,0.00,Weather View 32 v70,2013-03-27 11:51:00,
2013-03-27 07:56:00,34.0,24.9,30.20,WNW,292,3.0,12.0,69,0.00,,,0.00,Weather View 32 v70,2013-03-27 11:56:00,
2013-03-27 08:01:00,34.0,24.2,30.20,WNW,292,6.0,12.0,67,0.00,,,0.00,Weather View 32 v70,2013-03-27 12:01:00,
2013-03-27 08:06:00,34.0,24.2,30.20,WNW,292,6.0,12.0,67,0.00,,,0.00,Weather View 32 v70,2013-03-27 12:06:00,
2013-03-27 08:11:00,35.0,25.1,30.21,WNW,292,7.0,12.0,67,0.00,,,0.00,Weather View 32 v70,2013-03-27 12:11:00,
2013-03-27 08:16:00,35.0,24.4,30.21,West,270,4.0,12.0,65,0.00,,,0.00,Weather View 32 v70,2013-03-27 12:16:00,
2013-03-27 08:21:00,36.0,24.6,30.21,WNW,292,6.0,12.0,63,0.00,,,0.00,Weather View 32 v70,2013-03-27 12:21:00,
2013-03-27 08:26:00,36.0,25.0,30.21,West,270,7.0,12.0,64,0.00,,,0.00,Weather View 32 v70,2013-03-27 12:26:00,
2013-03-27 08:31:00,36.0,24.2,30.22,West,270,4.0,12.0,62,0.00,,,0.00,Weather View 32 v70,2013-03-27 12:31:00,
2013-03-27 08:36:00,37.0,24.8,30.22,WNW,292,9.0,12.0,61,0.00,,,0.00,Weather View 32 v70,2013-03-27 12:36:00,
2013-03-27 08:41:00,37.0,24.4,30.22,NW,315,6.0,14.0,60,0.00,,,0.00,Weather View 32 v70,2013-03-27 12:41:00,
2013-03-27 08:46:00,38.0,24.9,30.21,WSW,247,5.0,15.0,59,0.00,,,0.00,Weather View 32 v70,2013-03-27 12:46:00,
2013-03-27 08:51:00,38.0,24.9,30.21,West,270,7.0,15.0,59,0.00,,,0.00,Weather View 32 v70,2013-03-27 12:51:00,
2013-03-27 08:57:00,38.0,24.1,30.21,WNW,292,7.0,15.0,57,0.00,,,0.00,Weather View 32 v70,2013-03-27 12:57:00,
2013-03-27 09:02:00,38.0,23.7,30.21,WNW,292,9.0,15.0,56,0.00,,,0.00,Weather View 32 v70,2013-03-27 13:02:00,
2013-03-27 09:07:00,39.0,24.2,30.21,WNW,292,7.0,16.0,55,0.00,,,0.00,Weather View 32 v70,2013-03-27 13:07:00,
2013-03-27 09:12:00,39.0,24.2,30.21,NW,315,7.0,16.0,55,0.00,,,0.00,Weather View 32 v70,2013-03-27 13:12:00,
2013-03-27 09:17:00,39.0,23.7,30.22,NW,315,9.0,18.0,54,0.00,,,0.00,Weather View 32 v70,2013-03-27 13:17:00,
2013-03-27 09:22:00,39.0,23.7,30.22,NW,315,6.0,18.0,54,0.00,,,0.00,Weather View 32 v70,2013-03-27 13:22:00,
2013-03-27 09:27:00,40.0,24.2,30.21,WNW,292,13.0,18.0,53,0.00,,,0.00,Weather View 32 v70,2013-03-27 13:27:00,
2013-03-27 09:32:00,39.0,23.3,30.21,West,270,12.0,18.0,53,0.00,,,0.00,Weather View 32 v70,2013-03-27 13:32:00,
2013-03-27 09:37:00,39.0,23.7,30.22,WNW,292,4.0,18.0,54,0.00,,,0.00,Weather View 32 v70,2013-03-27 13:37:00,
2013-03-27 09:42:00,40.0,24.7,30.22,West,270,8.0,18.0,54,0.00,,,0.00,Weather View 32 v70,2013-03-27 13:42:00,
2013-03-27 09:47:00,40.0,23.8,30.22,NW,315,15.0,18.0,52,0.00,,,0.00,Weather View 32 v70,2013-03-27 13:47:00,
2013-03-27 09:52:00,39.0,23.7,30.22,West,270,12.0,18.0,54,0.00,,,0.00,Weather View 32 v70,2013-03-27 13:52:00,
2013-03-27 09:57:00,41.0,24.7,30.21,NNW,337,4.0,18.0,52,0.00,,,0.00,Weather View 32 v70,2013-03-27 13:57:00,
2013-03-27 10:02:00,41.0,24.2,30.21,NW,315,3.0,18.0,51,0.00,,,0.00,Weather View 32 v70,2013-03-27 14:02:00,
2013-03-27 10:07:00,41.0,24.7,30.21,NNE,22,1.0,18.0,52,0.00,,,0.00,Weather View 32 v70,2013-03-27 14:07:00,
2013-03-27 10:12:00,41.0,24.2,30.21,West,270,14.0,18.0,51,0.00,,,0.00,Weather View 32 v70,2013-03-27 14:12:00,
2013-03-27 10:17:00,40.0,23.8,30.21,West,270,14.0,17.0,52,0.00,,,0.00,Weather View 32 v70,2013-03-27 14:17:00,
2013-03-27 10:22:00,39.0,23.3,30.21,WNW,292,3.0,17.0,53,0.00,,,0.00,Weather View 32 v70,2013-03-27 14:22:00,
2013-03-27 10:27:00,40.0,23.3,30.22,NW,315,7.0,17.0,51,0.00,,,0.00,Weather View 32 v70,2013-03-27 14:27:00,
2013-03-27 10:32:00,42.0,24.7,30.22,NW,315,6.0,17.0,50,0.00,,,0.00,Weather View 32 v70,2013-03-27 14:32:00,
2013-03-27 10:37:00,41.0,24.2,30.21,WNW,292,12.0,17.0,51,0.00,,,0.00,Weather View 32 v70,2013-03-27 14:37:00,
2013-03-27 10:42:00,40.0,23.8,30.21,NW,315,8.0,17.0,52,0.00,,,0.00,Weather View 32 v70,2013-03-27 14:42:00,
2013-03-27 10:47:00,39.0,22.8,30.21,West,270,7.0,17.0,52,0.00,,,0.00,Weather View 32 v70,2013-03-27 14:47:00,
2013-03-27 10:52:00,39.0,22.4,30.21,NW,315,8.0,20.0,51,0.00,,,0.00,Weather View 32 v70,2013-03-27 14:52:00,
2013-03-27 10:57:00,39.0,22.4,30.22,West,270,11.0,21.0,51,0.00,,,0.00,Weather View 32 v70,2013-03-27 14:57:00,
2013-03-27 11:02:00,39.0,22.8,30.22,WNW,292,10.0,21.0,52,0.00,,,0.00,Weather View 32 v70,2013-03-27 15:02:00,
2013-03-27 11:07:00,39.0,21.9,30.22,West,270,8.0,21.0,50,0.00,,,0.00,Weather View 32 v70,2013-03-27 15:07:00,
2013-03-27 11:12:00,41.0,24.2,30.22,NW,315,7.0,21.0,51,0.00,,,0.00,Weather View 32 v70,2013-03-27 15:12:00,
2013-03-27 11:17:00,42.0,23.7,30.21,NNW,337,12.0,22.0,48,0.00,,,0.00,Weather View 32 v70,2013-03-27 15:17:00,
2013-03-27 11:22:00,42.0,23.2,30.21,WNW,292,13.0,22.0,47,0.00,,,0.00,Weather View 32 v70,2013-03-27 15:22:00,
2013-03-27 11:27:00,42.0,22.7,30.21,West,270,9.0,22.0,46,0.00,,,0.00,Weather View 32 v70,2013-03-27 15:27:00,
2013-03-27 11:32:00,42.0,22.2,30.21,NW,315,9.0,22.0,45,0.00,,,0.00,Weather View 32 v70,2013-03-27 15:32:00,
2013-03-27 11:37:00,42.0,22.7,30.21,West,270,10.0,22.0,46,0.00,,,0.00,Weather View 32 v70,2013-03-27 15:37:00,
2013-03-27 11:42:00,41.0,21.8,30.21,NW,315,9.0,22.0,46,0.00,,,0.00,Weather View 32 v70,2013-03-27 15:42:00,
2013-03-27 11:48:00,41.0,21.3,30.21,West,270,12.0,22.0,45,0.00,,,0.00,Weather View 32 v70,2013-03-27 15:48:00,
2013-03-27 11:53:00,43.0,23.1,30.21,West,270,10.0,22.0,45,0.00,,,0.00,Weather View 32 v70,2013-03-27 15:53:00,
2013-03-27 11:58:00,43.0,21.4,30.21,NW,315,10.0,22.0,42,0.00,,,0.00,Weather View 32 v70,2013-03-27 15:58:00,
2013-03-27 12:03:00,43.0,24.1,30.21,WNW,292,6.0,22.0,47,0.00,,,0.00,Weather View 32 v70,2013-03-27 16:03:00,
2013-03-27 12:08:00,42.0,22.2,30.21,NW,315,8.0,22.0,45,0.00,,,0.00,Weather View 32 v70,2013-03-27 16:08:00,
2013-03-27 12:13:00,42.0,21.6,30.21,NW,315,10.0,22.0,44,0.00,,,0.00,Weather View 32 v70,2013-03-27 16:13:00,
2013-03-27 12:18:00,43.0,23.6,30.21,NNW,337,2.0,20.0,46,0.00,,,0.00,Weather View 32 v70,2013-03-27 16:18:00,
2013-03-27 12:23:00,43.0,23.6,30.21,NW,315,11.0,20.0,46,0.00,,,0.00,Weather View 32 v70,2013-03-27 16:23:00,
2013-03-27 12:28:00,43.0,22.5,30.21,WNW,292,7.0,20.0,44,0.00,,,0.00,Weather View 32 v70,2013-03-27 16:28:00,
2013-03-27 12:33:00,44.0,21.8,30.21,NNW,337,6.0,20.0,41,0.00,,,0.00,Weather View 32 v70,2013-03-27 16:33:00,
2013-03-27 12:38:00,44.0,22.9,30.21,NW,315,2.0,20.0,43,0.00,,,0.00,Weather View 32 v70,2013-03-27 16:38:00,
2013-03-27 12:43:00,43.0,22.0,30.21,WNW,292,9.0,20.0,43,0.00,,,0.00,Weather View 32 v70,2013-03-27 16:43:00,
2013-03-27 12:48:00,44.0,22.3,30.20,NNW,337,9.0,20.0,42,0.00,,,0.00,Weather View 32 v70,2013-03-27 16:48:00,
2013-03-27 12:53:00,43.0,21.4,30.20,West,270,10.0,22.0,42,0.00,,,0.00,Weather View 32 v70,2013-03-27 16:53:00,
2013-03-27 12:58:00,44.0,21.8,30.20,West,270,7.0,22.0,41,0.00,,,0.00,Weather View 32 v70,2013-03-27 16:58:00,
2013-03-27 13:03:00,43.0,21.4,30.20,West,270,9.0,22.0,42,0.00,,,0.00,Weather View 32 v70,2013-03-27 17:03:00,
2013-03-27 13:08:00,44.0,23.5,30.20,WNW,292,9.0,22.0,44,0.00,,,0.00,Weather View 32 v70,2013-03-27 17:08:00,
2013-03-27 13:13:00,44.0,22.9,30.20,West,270,6.0,22.0,43,0.00,,,0.00,Weather View 32 v70,2013-03-27 17:13:00,
2013-03-27 13:18:00,43.0,21.4,30.20,NW,315,13.0,22.0,42,0.00,,,0.00,Weather View 32 v70,2013-03-27 17:18:00,
2013-03-27 13:23:00,44.0,22.3,30.20,NNW,337,11.0,22.0,42,0.00,,,0.00,Weather View 32 v70,2013-03-27 17:23:00,
2013-03-27 13:28:00,43.0,21.4,30.20,WNW,292,10.0,22.0,42,0.00,,,0.00,Weather View 32 v70,2013-03-27 17:28:00,
2013-03-27 13:33:00,43.0,21.4,30.20,NW,315,9.0,22.0,42,0.00,,,0.00,Weather View 32 v70,2013-03-27 17:33:00,
2013-03-27 13:38:00,43.0,22.0,30.20,West,270,6.0,22.0,43,0.00,,,0.00,Weather View 32 v70,2013-03-27 17:38:00,
2013-03-27 13:43:00,44.0,22.3,30.20,WNW,292,13.0,22.0,42,0.00,,,0.00,Weather View 32 v70,2013-03-27 17:43:00,
2013-03-27 13:48:00,44.0,21.8,30.20,NW,315,9.0,22.0,41,0.00,,,0.00,Weather View 32 v70,2013-03-27 17:48:00,
2013-03-27 13:53:00,45.0,23.3,30.20,NW,315,5.0,22.0,42,0.00,,,0.00,Weather View 32 v70,2013-03-27 17:53:00,
2013-03-27 13:58:00,46.0,23.6,30.18,SW,225,6.0,22.0,41,0.00,,,0.00,Weather View 32 v70,2013-03-27 17:58:00,
2013-03-27 14:03:00,44.0,21.2,30.18,WNW,292,7.0,22.0,40,0.00,,,0.00,Weather View 32 v70,2013-03-27 18:03:00,
2013-03-27 14:08:00,44.0,20.6,30.18,NNW,337,15.0,22.0,39,0.00,,,0.00,Weather View 32 v70,2013-03-27 18:08:00,
2013-03-27 14:13:00,45.0,21.5,30.18,NW,315,10.0,22.0,39,0.00,,,0.00,Weather View 32 v70,2013-03-27 18:13:00,
2013-03-27 14:18:00,45.0,22.1,30.17,WNW,292,8.0,22.0,40,0.00,,,0.00,Weather View 32 v70,2013-03-27 18:18:00,
2013-03-27 14:23:00,45.0,21.5,30.17,WNW,292,11.0,20.0,39,0.00,,,0.00,Weather View 32 v70,2013-03-27 18:23:00,
2013-03-27 14:28:00,45.0,20.9,30.17,West,270,16.0,20.0,38,0.00,,,0.00,Weather View 32 v70,2013-03-27 18:28:00,
2013-03-27 14:33:00,46.0,22.4,30.17,NNW,337,9.0,20.0,39,0.00,,,0.00,Weather View 32 v70,2013-03-27 18:33:00,
2013-03-27 14:38:00,46.0,21.1,30.17,WNW,292,8.0,20.0,37,0.00,,,0.00,Weather View 32 v70,2013-03-27 18:38:00,
2013-03-27 14:43:00,45.0,20.9,30.17,WNW,292,16.0,20.0,38,0.00,,,0.00,Weather View 32 v70,2013-03-27 18:43:00,
2013-03-27 14:48:00,45.0,20.9,30.17,West,270,12.0,20.0,38,0.00,,,0.00,Weather View 32 v70,2013-03-27 18:48:00,
2013-03-27 14:53:00,46.0,22.4,30.17,WNW,292,7.0,20.0,39,0.00,,,0.00,Weather View 32 v70,2013-03-27 18:53:00,
2013-03-27 14:58:00,47.0,22.0,30.16,NNW,337,11.0,20.0,37,0.00,,,0.00,Weather View 32 v70,2013-03-27 18:58:00,
2013-03-27 15:03:00,46.0,21.1,30.16,WNW,292,9.0,20.0,37,0.00,,,0.00,Weather View 32 v70,2013-03-27 19:03:00,
2013-03-27 15:08:00,47.0,22.0,30.16,West,270,7.0,22.0,37,0.00,,,0.00,Weather View 32 v70,2013-03-27 19:08:00,
2013-03-27 15:13:00,46.0,21.1,30.16,WNW,292,10.0,22.0,37,0.00,,,0.00,Weather View 32 v70,2013-03-27 19:13:00,
2013-03-27 15:18:00,46.0,21.1,30.15,WNW,292,14.0,22.0,37,0.00,,,0.00,Weather View 32 v70,2013-03-27 19:18:00,
2013-03-27 15:23:00,46.0,21.8,30.15,NNW,337,13.0,22.0,38,0.00,,,0.00,Weather View 32 v70,2013-03-27 19:23:00,
2013-03-27 15:28:00,46.0,21.1,30.16,North,360,9.0,22.0,37,0.00,,,0.00,Weather View 32 v70,2013-03-27 19:28:00,
2013-03-27 15:33:00,46.0,22.4,30.16,NW,315,7.0,22.0,39,0.00,,,0.00,Weather View 32 v70,2013-03-27 19:33:00,
2013-03-27 15:38:00,46.0,21.1,30.16,NW,315,12.0,22.0,37,0.00,,,0.00,Weather View 32 v70,2013-03-27 19:38:00,
2013-03-27 15:43:00,45.0,20.3,30.16,NW,315,6.0,22.0,37,0.00,,,0.00,Weather View 32 v70,2013-03-27 19:43:00,
2013-03-27 15:48:00,45.0,20.3,30.16,NNW,337,6.0,22.0,37,0.00,,,0.00,Weather View 32 v70,2013-03-27 19:48:00,
2013-03-27 15:53:00,46.0,22.4,30.16,NNW,337,6.0,22.0,39,0.00,,,0.00,Weather View 32 v70,2013-03-27 19:53:00,
2013-03-27 15:58:00,46.0,22.4,30.15,WNW,292,3.0,22.0,39,0.00,,,0.00,Weather View 32 v70,2013-03-27 19:58:00,
2013-03-27 16:03:00,47.0,22.0,30.15,NNW,337,7.0,22.0,37,0.00,,,0.00,Weather View 32 v70,2013-03-27 20:03:00,
2013-03-27 16:08:00,48.0,22.3,30.14,NW,315,13.0,22.0,36,0.00,,,0.00,Weather View 32 v70,2013-03-27 20:08:00,
2013-03-27 16:13:00,47.0,22.0,30.14,WNW,292,10.0,21.0,37,0.00,,,0.00,Weather View 32 v70,2013-03-27 20:13:00,
2013-03-27 16:18:00,47.0,21.4,30.14,North,360,3.0,21.0,36,0.00,,,0.00,Weather View 32 v70,2013-03-27 20:18:00,
2013-03-27 16:23:00,48.0,22.9,30.14,NNW,337,4.0,21.0,37,0.00,,,0.00,Weather View 32 v70,2013-03-27 20:23:00,
2013-03-27 16:28:00,47.0,22.0,30.14,NW,315,7.0,21.0,37,0.00,,,0.00,Weather View 32 v70,2013-03-27 20:28:00,
2013-03-27 16:33:00,48.0,22.9,30.14,West,270,12.0,21.0,37,0.00,,,0.00,Weather View 32 v70,2013-03-27 20:33:00,
2013-03-27 16:38:00,47.0,22.0,30.14,SW,225,13.0,21.0,37,0.00,,,0.00,Weather View 32 v70,2013-03-27 20:38:00,
2013-03-27 16:43:00,47.0,22.7,30.14,WNW,292,9.0,21.0,38,0.00,,,0.00,Weather View 32 v70,2013-03-27 20:43:00,
2013-03-27 16:48:00,47.0,22.0,30.14,West,270,6.0,21.0,37,0.00,,,0.00,Weather View 32 v70,2013-03-27 20:48:00,
2013-03-27 16:53:00,46.0,21.8,30.14,NW,315,7.0,21.0,38,0.00,,,0.00,Weather View 32 v70,2013-03-27 20:53:00,
2013-03-27 16:58:00,47.0,22.7,30.14,NW,315,6.0,21.0,38,0.00,,,0.00,Weather View 32 v70,2013-03-27 20:58:00,
2013-03-27 17:03:00,47.0,22.0,30.14,West,270,6.0,21.0,37,0.00,,,0.00,Weather View 32 v70,2013-03-27 21:03:00,
2013-03-27 17:08:00,47.0,22.0,30.14,WNW,292,15.0,21.0,37,0.00,,,0.00,Weather View 32 v70,2013-03-27 21:08:00,
2013-03-27 17:13:00,47.0,22.0,30.14,West,270,7.0,20.0,37,0.00,,,0.00,Weather View 32 v70,2013-03-27 21:13:00,
2013-03-27 17:18:00,47.0,22.0,30.14,WNW,292,6.0,20.0,37,0.00,,,0.00,Weather View 32 v70,2013-03-27 21:18:00,
2013-03-27 17:23:00,47.0,22.0,30.14,WNW,292,10.0,20.0,37,0.00,,,0.00,Weather View 32 v70,2013-03-27 21:23:00,
2013-03-27 17:28:00,47.0,22.0,30.14,West,270,7.0,20.0,37,0.00,,,0.00,Weather View 32 v70,2013-03-27 21:28:00,
2013-03-27 17:33:00,47.0,22.7,30.14,NNW,337,1.0,21.0,38,0.00,,,0.00,Weather View 32 v70,2013-03-27 21:33:00,
2013-03-27 17:38:00,47.0,22.0,30.14,NW,315,6.0,21.0,37,0.00,,,0.00,Weather View 32 v70,2013-03-27 21:38:00,
2013-03-27 17:45:00,47.0,22.0,30.14,NW,315,3.0,21.0,37,0.00,,,0.00,Weather View 32 v70,2013-03-27 21:45:00,
2013-03-27 17:50:00,47.0,22.0,30.14,West,270,11.0,21.0,37,0.00,,,0.00,Weather View 32 v70,2013-03-27 21:50:00,
2013-03-27 17:55:00,47.0,22.0,30.14,West,270,4.0,21.0,37,0.00,,,0.00,Weather View 32 v70,2013-03-27 21:55:00,
2013-03-27 18:00:00,47.0,21.4,30.14,NW,315,9.0,21.0,36,0.00,,,0.00,Weather View 32 v70,2013-03-27 22:00:00,
2013-03-27 18:05:00,47.0,22.0,30.14,NW,315,8.0,21.0,37,0.00,,,0.00,Weather View 32 v70,2013-03-27 22:05:00,
2013-03-27 18:10:00,47.0,22.0,30.15,West,270,5.0,21.0,37,0.00,,,0.00,Weather View 32 v70,2013-03-27 22:10:00,
2013-03-27 18:15:00,47.0,22.0,30.15,WNW,292,9.0,21.0,37,0.00,,,0.00,Weather View 32 v70,2013-03-27 22:15:00,
2013-03-27 18:20:00,46.0,21.1,30.15,West,270,15.0,21.0,37,0.00,,,0.00,Weather View 32 v70,2013-03-27 22:20:00,
2013-03-27 18:25:00,46.0,21.8,30.15,WSW,247,9.0,21.0,38,0.00,,,0.00,Weather View 32 v70,2013-03-27 22:25:00,
2013-03-27 18:30:00,46.0,21.8,30.16,West,270,9.0,21.0,38,0.00,,,0.00,Weather View 32 v70,2013-03-27 22:30:00,
2013-03-27 18:35:00,46.0,21.1,30.16,West,270,10.0,23.0,37,0.00,,,0.00,Weather View 32 v70,2013-03-27 22:35:00,
2013-03-27 18:40:00,46.0,21.8,30.16,West,270,7.0,23.0,38,0.00,,,0.00,Weather View 32 v70,2013-03-27 22:40:00,
2013-03-27 18:45:00,45.0,20.9,30.16,NW,315,9.0,23.0,38,0.00,,,0.00,Weather View 32 v70,2013-03-27 22:45:00,
2013-03-27 18:50:00,45.0,20.9,30.17,NW,315,12.0,23.0,38,0.00,,,0.00,Weather View 32 v70,2013-03-27 22:50:00,
2013-03-27 18:55:00,45.0,20.9,30.17,WNW,292,13.0,23.0,38,0.00,,,0.00,Weather View 32 v70,2013-03-27 22:55:00,
2013-03-27 19:00:00,45.0,21.5,30.17,NW,315,12.0,23.0,39,0.00,,,0.00,Weather View 32 v70,2013-03-27 23:00:00,
2013-03-27 19:05:00,45.0,21.5,30.17,NW,315,3.0,23.0,39,0.00,,,0.00,Weather View 32 v70,2013-03-27 23:05:00,
2013-03-27 19:10:00,45.0,21.5,30.17,WNW,292,7.0,23.0,39,0.00,,,0.00,Weather View 32 v70,2013-03-27 23:10:00,
2013-03-27 19:15:00,45.0,21.5,30.17,NW,315,6.0,23.0,39,0.00,,,0.00,Weather View 32 v70,2013-03-27 23:15:00,
2013-03-27 19:20:00,44.0,20.6,30.18,West,270,10.0,23.0,39,0.00,,,0.00,Weather View 32 v70,2013-03-27 23:20:00,
2013-03-27 19:25:00,44.0,21.8,30.18,NW,315,11.0,23.0,41,0.00,,,0.00,Weather View 32 v70,2013-03-27 23:25:00,
2013-03-27 19:30:00,44.0,21.8,30.19,West,270,8.0,23.0,41,0.00,,,0.00,Weather View 32 v70,2013-03-27 23:30:00,
2013-03-27 19:35:00,43.0,20.9,30.19,NW,315,9.0,19.0,41,0.00,,,0.00,Weather View 32 v70,2013-03-27 23:35:00,
2013-03-27 19:40:00,43.0,21.4,30.19,NW,315,7.0,19.0,42,0.00,,,0.00,Weather View 32 v70,2013-03-27 23:40:00,
2013-03-27 19:45:00,43.0,22.0,30.19,WNW,292,0.0,19.0,43,0.00,,,0.00,Weather View 32 v70,2013-03-27 23:45:00,
2013-03-27 19:50:00,43.0,22.5,30.19,WNW,292,7.0,19.0,44,0.00,,,0.00,Weather View 32 v70,2013-03-27 23:50:00,
2013-03-27 19:55:00,42.0,21.1,30.19,WNW,292,9.0,19.0,43,0.00,,,0.00,Weather View 32 v70,2013-03-27 23:55:00,
2013-03-27 20:00:00,42.0,21.6,30.19,NW,315,3.0,19.0,44,0.00,,,0.00,Weather View 32 v70,2013-03-28 00:00:00,
2013-03-27 20:05:00,42.0,21.6,30.19,WNW,292,6.0,19.0,44,0.00,,,0.00,Weather View 32 v70,2013-03-28 00:05:00,
2013-03-27 20:10:00,42.0,21.6,30.20,West,270,6.0,18.0,44,0.00,,,0.00,Weather View 32 v70,2013-03-28 00:10:00,
2013-03-27 20:15:00,42.0,22.2,30.20,West,270,2.0,18.0,45,0.00,,,0.00,Weather View 32 v70,2013-03-28 00:15:00,
2013-03-27 20:20:00,42.0,22.2,30.20,WNW,292,6.0,18.0,45,0.00,,,0.00,Weather View 32 v70,2013-03-28 00:20:00,
2013-03-27 20:25:00,42.0,22.7,30.20,West,270,4.0,16.0,46,0.00,,,0.00,Weather View 32 v70,2013-03-28 00:25:00,
2013-03-27 20:30:00,41.0,21.8,30.19,NW,315,6.0,14.0,46,0.00,,,0.00,Weather View 32 v70,2013-03-28 00:30:00,
2013-03-27 20:35:00,41.0,21.8,30.19,WNW,292,3.0,12.0,46,0.00,,,0.00,Weather View 32 v70,2013-03-28 00:35:00,
2013-03-27 20:40:00,41.0,21.8,30.21,WSW,247,4.0,12.0,46,0.00,,,0.00,Weather View 32 v70,2013-03-28 00:40:00,
2013-03-27 20:45:00,41.0,21.8,30.21,West,270,10.0,12.0,46,0.00,,,0.00,Weather View 32 v70,2013-03-28 00:45:00,
2013-03-27 20:50:00,41.0,21.8,30.21,NW,315,3.0,12.0,46,0.00,,,0.00,Weather View 32 v70,2013-03-28 00:50:00,
2013-03-27 20:55:00,41.0,22.3,30.21,West,270,7.0,12.0,47,0.00,,,0.00,Weather View 32 v70,2013-03-28 00:55:00,
2013-03-27 21:00:00,41.0,21.8,30.21,West,270,5.0,12.0,46,0.00,,,0.00,Weather View 32 v70,2013-03-28 01:00:00,
2013-03-27 21:05:00,41.0,22.3,30.21,West,270,5.0,12.0,47,0.00,,,0.00,Weather View 32 v70,2013-03-28 01:05:00,
2013-03-27 21:10:00,41.0,21.8,30.21,WNW,292,5.0,12.0,46,0.00,,,0.00,Weather View 32 v70,2013-03-28 01:10:00,
2013-03-27 21:15:00,40.0,21.4,30.21,WNW,292,7.0,12.0,47,0.00,,,0.00,Weather View 32 v70,2013-03-28 01:15:00,
2013-03-27 21:20:00,40.0,21.4,30.21,West,270,8.0,12.0,47,0.00,,,0.00,Weather View 32 v70,2013-03-28 01:20:00,
2013-03-27 21:25:00,40.0,21.4,30.21,West,270,2.0,12.0,47,0.00,,,0.00,Weather View 32 v70,2013-03-28 01:25:00,
2013-03-27 21:30:00,40.0,21.4,30.21,WNW,292,6.0,12.0,47,0.00,,,0.00,Weather View 32 v70,2013-03-28 01:30:00,
2013-03-27 21:35:00,40.0,21.9,30.21,WNW,292,6.0,12.0,48,0.00,,,0.00,Weather View 32 v70,2013-03-28 01:35:00,
2013-03-27 21:40:00,40.0,22.4,30.22,WNW,292,1.0,12.0,49,0.00,,,0.00,Weather View 32 v70,2013-03-28 01:40:00,
2013-03-27 21:45:00,40.0,22.4,30.22,WNW,292,4.0,12.0,49,0.00,,,0.00,Weather View 32 v70,2013-03-28 01:45:00,
2013-03-27 21:50:00,39.0,21.9,30.22,WNW,292,4.0,12.0,50,0.00,,,0.00,Weather View 32 v70,2013-03-28 01:50:00,
2013-03-27 21:55:00,39.0,21.9,30.22,WNW,292,4.0,12.0,50,0.00,,,0.00,Weather View 32 v70,2013-03-28 01:55:00,
2013-03-27 22:00:00,39.0,21.9,30.23,WNW,292,7.0,12.0,50,0.00,,,0.00,Weather View 32 v70,2013-03-28 02:00:00,
2013-03-27 22:05:00,39.0,21.9,30.23,WNW,292,6.0,12.0,50,0.00,,,0.00,Weather View 32 v70,2013-03-28 02:05:00,
2013-03-27 22:10:00,39.0,22.8,30.23,WNW,292,5.0,12.0,52,0.00,,,0.00,Weather View 32 v70,2013-03-28 02:10:00,
2013-03-27 22:15:00,39.0,22.8,30.23,WNW,292,6.0,11.0,52,0.00,,,0.00,Weather View 32 v70,2013-03-28 02:15:00,
2013-03-27 22:20:00,39.0,22.4,30.23,WNW,292,3.0,10.0,51,0.00,,,0.00,Weather View 32 v70,2013-03-28 02:20:00,
2013-03-27 22:25:00,38.0,21.9,30.23,West,270,4.0,10.0,52,0.00,,,0.00,Weather View 32 v70,2013-03-28 02:25:00,
2013-03-27 22:30:00,38.0,21.9,30.23,West,270,6.0,10.0,52,0.00,,,0.00,Weather View 32 v70,2013-03-28 02:30:00,
2013-03-27 22:35:00,38.0,21.5,30.23,West,270,6.0,9.0,51,0.00,,,0.00,Weather View 32 v70,2013-03-28 02:35:00,
2013-03-27 22:40:00,38.0,21.9,30.23,West,270,6.0,9.0,52,0.00,,,0.00,Weather View 32 v70,2013-03-28 02:40:00,
2013-03-27 22:45:00,38.0,21.5,30.23,WNW,292,5.0,10.0,51,0.00,,,0.00,Weather View 32 v70,2013-03-28 02:45:00,
2013-03-27 22:50:00,38.0,21.5,30.23,WNW,292,6.0,10.0,51,0.00,,,0.00,Weather View 32 v70,2013-03-28 02:50:00,
2013-03-27 22:55:00,38.0,21.5,30.23,WNW,292,1.0,10.0,51,0.00,,,0.00,Weather View 32 v70,2013-03-28 02:55:00,
2013-03-27 23:00:00,38.0,21.5,30.23,West,270,6.0,10.0,51,0.00,,,0.00,Weather View 32 v70,2013-03-28 03:00:00,
2013-03-27 23:05:00,38.0,21.9,30.23,WNW,292,2.0,10.0,52,0.00,,,0.00,Weather View 32 v70,2013-03-28 03:05:00,
2013-03-27 23:10:00,38.0,21.9,30.23,WNW,292,7.0,10.0,52,0.00,,,0.00,Weather View 32 v70,2013-03-28 03:10:00,
2013-03-27 23:15:00,38.0,21.9,30.23,West,270,4.0,10.0,52,0.00,,,0.00,Weather View 32 v70,2013-03-28 03:15:00,
2013-03-27 23:20:00,38.0,22.4,30.23,West,270,8.0,10.0,53,0.00,,,0.00,Weather View 32 v70,2013-03-28 03:20:00,
2013-03-27 23:25:00,38.0,21.9,30.23,WSW,247,6.0,10.0,52,0.00,,,0.00,Weather View 32 v70,2013-03-28 03:25:00,
2013-03-27 23:31:00,38.0,22.4,30.23,West,270,5.0,10.0,53,0.00,,,0.00,Weather View 32 v70,2013-03-28 03:31:00,
2013-03-27 23:36:00,38.0,22.4,30.23,West,270,4.0,10.0,53,0.00,,,0.00,Weather View 32 v70,2013-03-28 03:36:00,
2013-03-27 23:41:00,38.0,21.9,30.23,WNW,292,6.0,10.0,52,0.00,,,0.00,Weather View 32 v70,2013-03-28 03:41:00,
2013-03-27 23:46:00,38.0,21.9,30.23,WNW,292,2.0,10.0,52,0.00,,,0.00,Weather View 32 v70,2013-03-28 03:46:00,
2013-03-27 23:51:00,38.0,21.9,30.24,West,270,6.0,10.0,52,0.00,,,0.00,Weather View 32 v70,2013-03-28 03:51:00,
2013-03-27 23:56:00,37.0,21.9,30.24,West,270,7.0,10.0,54,0.00,,,0.00,Weather View 32 v70,2013-03-28 03:56:00,